Location: Moscow
(55.7500°N, 37.5830°E)
Time: 08:43:03
(UTC+03:00)

Vanguard 1 Rocket - Pass Details

Date: 08 December 2021
Orbit: 651 x 4224 km, 34.3° (Epoch: 23 January)

Event Time Altitude Azimuth Distance (km) Brightness Sun altitude
Exits shadow 04:39:00 26° 206° (SSW) 3,798 10.2 -32.9°
Maximum altitude 04:43:49 31° 177° (S) 4,009 10.5 -32.3°
Drops below altitude 10° 05:00:32 10° 126° (SE) 6,906 12.4 -29.9°
Sets 05:07:37 0° 119° (ESE) 8,273 13.1 -28.9°
